• Processing (Info)

  • MPEC 2017-W11 : 2017 VX13

    The following Minor Planet Electronic Circular may be linked-to from your own Web pages, but must not otherwise be redistributed electronically.

    A form allowing access to any MPEC is at the bottom of this page.


    Read MPEC 2017-W10 Read MPEC 2017-W12


    M.P.E.C. 2017-W11                                Issued 2017 Nov. 16, 16:10 UT
    
         The Minor Planet Electronic Circulars contain information on unusual
             minor planets and routine data on comets.  They are published
        on behalf of Division F of the International Astronomical Union by the
              Minor Planet Center, Smithsonian Astrophysical Observatory,
                              Cambridge, MA 02138, U.S.A.
    
                 Prepared using the Tamkin Foundation Computer Network
    
                                  MPC@CFA.HARVARD.EDU
                URL https://www.minorplanetcenter.net/    ISSN 1523-6714
    
                                       2017 VX13
    
    Observations:
         K17V13X* C2017 11 14.24004 02 43 31.43 +22 01 26.9          21.1 GUEW011G96
         K17V13X  C2017 11 14.24425 02 43 31.82 +22 01 31.1          20.8 GUEW011G96
         K17V13X  C2017 11 14.24847 02 43 32.17 +22 01 35.7          22.4 GUEW011G96
         K17V13X  C2017 11 14.25268 02 43 32.54 +22 01 40.7          21.3 GUEW011G96
         K17V13X  C2017 11 14.29205 02 43 36.09 +22 02 23.7          21.1 GUEW011I52
         K17V13X  C2017 11 14.29999 02 43 36.76 +22 02 32.6          20.7 GUEW011I52
         K17V13X  C2017 11 14.31354 02 43 37.94 +22 02 47.1          20.4 GUEW011I52
         K17V13X  C2017 11 14.40580 02 43 46.45 +22 04 23.9          21.4 GUEW011I52
         K17V13X  C2017 11 14.41224 02 43 47.05 +22 04 30.9          21.4 GUEW011I52
         K17V13X  C2017 11 14.41851 02 43 47.54 +22 04 37.1                UEW011I52
         K17V13X  C2017 11 14.43062 02 43 48.37 +22 04 50.2                UEW011I52
         K17V13X  C2017 11 15.11516902 45 06.60 +22 17 23.2          20.6 GUEW011H01
         K17V13X  C2017 11 15.12476902 45 07.54 +22 17 34.4          21.1 GUEW011H01
         K17V13X  C2017 11 15.12990802 45 08.05 +22 17 40.4          21.0 GUEW011H01
         K17V13X  C2017 11 15.13973602 45 09.00 +22 17 51.9          21.5 GUEW011H01
         K17V13X  C2017 11 15.22738 02 45 17.52 +22 19 33.1          20.2 GUEW011I52
         K17V13X  C2017 11 15.23069 02 45 17.79 +22 19 36.7          20.7 GUEW011I52
         K17V13X  C2017 11 15.23401 02 45 18.08 +22 19 40.7          20.8 GUEW011I52
         K17V13X  C2017 11 15.23733 02 45 18.40 +22 19 44.0          20.8 GUEW011I52
         K17V13X  C2017 11 15.36978 02 45 30.76 +22 22 09.1          20.6 RoEW011926
         K17V13X  C2017 11 15.37627 02 45 31.38 +22 22 16.2          20.7 RoEW011926
         K17V13X  C2017 11 15.38277 02 45 32.06 +22 22 23.1          20.7 RoEW011926
         K17V13X  C2017 11 16.23776 02 47 09.57 +22 38 12.9          21.2 GUEW011I52
         K17V13X  C2017 11 16.24024 02 47 09.79 +22 38 15.8          21.4 GUEW011I52
         K17V13X  C2017 11 16.24274 02 47 10.04 +22 38 18.5          21.1 GUEW011I52
         K17V13X  C2017 11 16.24522 02 47 10.27 +22 38 21.2          21.5 GUEW011I52
         K17V13X  C2017 11 16.32369 02 47 17.82 +22 39 49.0          20.7 RoEW011926
         K17V13X  C2017 11 16.34503 02 47 19.91 +22 40 11.5          20.7 RoEW011926
    
    Observer details:
    926 Tenagra II Observatory.  Observers M. Schwartz, P. R. Holvorcem.  Measurer
        M. Schwartz.  0.81-m f/7 Ritchey-Chretien + CCD.
    G96 Mt. Lemmon Survey.  Observer A. D. Grauer.  Measurers E. J. Christensen,
        D. C. Fuls, A. R. Gibbs, A. D. Grauer, J. A. Johnson, R. A. Kowalski,
        S. M. Larson, G. J. Leonard, R. G. Matheny, R. L. Seaman, F. C. Shelly.
        1.5-m reflector + 10K CCD.
    H01 Magdalena Ridge Observatory, Socorro.  Observers W. H. Ryan, E. V. Ryan.
        Measurer W. H. Ryan.  2.4-m f/8.9 reflector + CCD.
    I52 Steward Observatory, Mt. Lemmon Station.  Observer G. J. Leonard.
        Measurers E. J. Christensen, D. C. Fuls, A. R. Gibbs, A. D. Grauer,
        J. A. Johnson, R. A. Kowalski, S. M. Larson, G. J. Leonard, R. G. Matheny,
        R. L. Seaman, F. C. Shelly.  1.0-m reflector + CCD.
    
    Orbital elements:
    2017 VX13                                                Earth MOID = 0.1769 AU
    Epoch 2017 Sept. 4.0 TT = JDT 2458000.5                 MPC
    M 335.34336              (2000.0)            P               Q
    n   0.26544341     Peri.   59.10319     +0.31848213     -0.94791045
    a   2.3978467      Node    12.32989     +0.85998987     +0.28630905
    e   0.5162453      Incl.    1.58564     +0.39873118     +0.13961703
    P   3.71           H   23.9           G   0.15           U   8
    Residuals in seconds of arc
    171114 G96  0.3+  0.2+    171114 I52 (5.2-  0.5+)   171115 926  0.5+  0.2+
    171114 G96  0.5+  0.2-    171115 H01  0.6-  0.1+    171115 926  1.3+  0.3+
    171114 G96  0.2+  0.3-    171115 H01  0.6-  0.0     171116 I52  0.0   0.1-
    171114 G96  0.1+  0.0     171115 H01  0.5-  0.0     171116 I52  0.3-  0.0
    171114 I52  1.0+  0.2-    171115 H01  0.5-  0.0     171116 I52  0.1-  0.1-
    171114 I52  0.5+  0.1+    171115 I52  0.5+  0.1-    171116 I52  0.2-  0.2-
    171114 I52  0.1+  0.0     171115 I52  0.0   0.3-    171116 926  0.2-  0.3+
    171114 I52  1.1+  0.3-    171115 I52  0.2-  0.0     171116 926  0.0   0.2-
    171114 I52  0.9+  0.1+    171115 I52  0.0   0.4-
    171114 I52  0.6-  0.2-    171115 926  0.5+  0.1-
    
    Ephemeris:
    2017 VX13                a,e,i = 2.40, 0.52, 2                   q = 1.1600
    Date    TT    R. A. (2000) Decl.     Delta      r     Elong.  Phase     V
    2017 10 17    02 11 12.0 +14 59 14   0.2975  1.2890   167.8     9.4    22.4
    ...
    2017 11 01    02 24 58.1 +18 17 45   0.2338  1.2259   176.0     3.2    21.5
    ...
    2017 11 09    02 35 07.5 +20 28 09   0.2103  1.1999   173.8     5.1    21.3
    ...
    2017 11 15    02 44 51.9 +22 15 30   0.1972  1.1843   170.8     7.7    21.3
    2017 11 16    02 46 42.1 +22 33 56   0.1954  1.1821   170.3     8.1    21.3
    2017 11 17    02 48 36.3 +22 52 28   0.1937  1.1799   169.8     8.5    21.3
    ...
    2017 11 23    03 01 30.1 +24 44 33   0.1857  1.1693   167.1    10.9    21.3
    ...
    2017 12 01    03 22 47.2 +27 07 54   0.1810  1.1613   164.2    13.4    21.3
    ...
    2017 12 16    04 12 14.5 +30 22 40   0.1907  1.1657   160.5    16.3    21.5
    
    A. U. Tomatic                (C) Copyright 2017 MPC           M.P.E.C. 2017-W11
    

    Read MPEC 2017-W10 Read MPEC 2017-W12


    MPEC number:

    Enter an MPEC number in one of the following forms:

    • 1997-B01 (the full form)
    • J97B01 (the packed version of the full form)
    • B01 (the abbreviated form)